Location: Newark
(38.9311°S, 68.8090°E)
Time: 00:23:53
(UTC+00:00)

LightSail 2 - Pass Details

Date: 28 January 2020
Orbit: 701 x 721 km, 24.0° (Epoch: 16 February)

Event Time Altitude Azimuth Distance (km) Brightness Sun altitude
Exits shadow 23:31:08 12° 330° (NNW) 2,080 7.0 -11.1°
Maximum altitude 23:33:21 15° 357° (N) 1,883 7.0 -10.7°
Drops below altitude 10° 23:36:14 10° 31° (NNE) 2,198 7.7 -10.3°
Sets 23:39:40 0° 54° (NE) 3,113 8.8 -9.7°
